[Date Prev][Date Next][Thread Prev][Thread Next] - [Date Index][Thread Index][Author Index]
2 Line ISS Keps & Suitsat [ updated ]
- Subject: [sarex] 2 Line ISS Keps & Suitsat [ updated ]
- From: "Dave Larsen PhD" <doc@xxxxxxxxxxx>
- Date: Sat, 4 Feb 2006 18:38:22 -0800
ISS
1 25544U 98067A 06035.89258299 .00013857 00000-0 97174-4 0 2872
2 25544 051.6437 147.8355 0008927 235.9363 225.6423 15.74495486412316
SUITSAT
1 28933U 05035C 06035.74763279 .01340357 00000-0 79197-2 0 20
2 28933 051.6359 148.5949 0008408 238.1112 122.0255 15.74821950 126
----
Via the sarex mailing list at AMSAT.ORG courtesy of AMSAT-NA.
To unsubscribe, send "unsubscribe sarex" to Majordomo@amsat.org
AMSAT Home